| time (UTC) | temp F | wind direction | speed MPH | gust MPH | rain 1hr in | rain 24hr in | rain mn in | humidity % | barometer mb |
| 20260906083059 | 62 | 27 | 0.0 | 0.0 | 0.00 | 0.00 | 0.00 | 69 | 1028.3 |
| 20260906081552 | 60 | 232 | 0.0 | 0.0 | 0.00 | 0.00 | 0.00 | 72 | 1028.4 |
| 20260906080051 | 59 | 225 | 0.0 | 0.0 | 0.00 | 0.00 | 0.00 | 78 | 1028.4 |
| 20260906074545 | 57 | 225 | 0.0 | 0.0 | 0.00 | 0.00 | 0.00 | 85 | 1028.3 |
| 20260906074132 | 56 | 0.0 | 0.0 | 0.00 | 0.00 | 0.00 | 88 | 1028.9 | |
| 20260906073041 | 56 | 225 | 0.0 | 0.0 | 0.00 | 0.00 | 0.00 | 88 | 1028.2 |
| 20260906071538 | 54 | 225 | 0.0 | 0.0 | 0.00 | 0.00 | 0.00 | 91 | 1028.2 |
| 20260906070037 | 51 | 225 | 0.0 | 0.0 | 0.00 | 0.00 | 0.00 | 91 | 1028.1 |
| 20260906064538 | 49 | 225 | 0.0 | 0.0 | 0.00 | 0.00 | 0.00 | 91 | 1028.0 |
| 20260906064103 | 47 | 0.0 | 0.0 | 0.00 | 0.00 | 0.00 | 90 | 1028.1 | |
| 20260906063034 | 47 | 226 | 0.0 | 0.0 | 0.00 | 0.00 | 0.00 | 90 | 1027.8 |
| 20260906061533 | 45 | 226 | 0.0 | 0.0 | 0.00 | 0.00 | 0.00 | 89 | 1027.8 |
| 20260906060032 | 45 | 226 | 0.0 | 0.0 | 0.00 | 0.00 | 0.00 | 89 | 1027.8 |
| 20260906054537 | 44 | 226 | 0.0 | 0.0 | 0.00 | 0.00 | 0.00 | 88 | 1027.7 |
| 20260906054129 | 45 | 0.0 | 0.0 | 0.00 | 0.00 | 0.00 | 88 | 1027.8 | |
| 20260906053029 | 44 | 226 | 0.0 | 0.0 | 0.00 | 0.00 | 0.00 | 88 | 1027.6 |
| 20260906051527 | 45 | 226 | 0.0 | 0.0 | 0.00 | 0.00 | 0.00 | 88 | 1027.4 |
| 20260906050027 | 45 | 226 | 0.0 | 0.0 | 0.00 | 0.00 | 0.00 | 88 | 1027.3 |
| 20260906044527 | 45 | 226 | 0.0 | 0.0 | 0.00 | 0.00 | 0.00 | 88 | 1027.2 |
| 20260906044059 | 45 | 0.0 | 0.0 | 0.00 | 0.00 | 0.00 | 88 | 1027.7 | |
| 20260906043025 | 45 | 226 | 0.0 | 0.0 | 0.00 | 0.00 | 0.00 | 88 | 1027.3 |
| 20260906041522 | 45 | 226 | 0.0 | 0.0 | 0.00 | 0.00 | 0.00 | 87 | 1027.1 |
| 20260906040022 | 45 | 226 | 0.0 | 0.0 | 0.00 | 0.00 | 0.00 | 87 | 1027.0 |
| 20260906034520 | 46 | 226 | 0.0 | 0.0 | 0.00 | 0.05 | 0.00 | 87 | 1027.0 |
| 20260906034127 | 46 | 0.0 | 0.0 | 0.00 | 0.00 | 0.00 | 87 | 1027.5 | |
| 20260906033019 | 46 | 226 | 0.0 | 0.0 | 0.00 | 0.05 | 0.00 | 87 | 1027.1 |
| 20260906031518 | 46 | 226 | 0.0 | 0.0 | 0.00 | 0.05 | 0.00 | 87 | 1026.9 |
| 20260906030017 | 46 | 226 | 0.0 | 0.0 | 0.00 | 0.05 | 0.00 | 86 | 1026.9 |
| 20260906024514 | 46 | 226 | 0.0 | 0.0 | 0.00 | 0.10 | 0.00 | 87 | 1026.8 |
| 20260906024204 | 47 | 0.0 | 0.0 | 0.00 | 0.09 | 0.00 | 86 | 1027.3 | |
| 20260906023012 | 47 | 225 | 0.0 | 0.0 | 0.00 | 0.10 | 0.00 | 86 | 1026.7 |
| 20260906021520 | 47 | 225 | 0.0 | 0.0 | 0.00 | 0.10 | 0.00 | 86 | 1026.4 |
| 20260906020011 | 47 | 225 | 0.0 | 0.0 | 0.00 | 0.10 | 0.00 | 86 | 1026.2 |
| 20260906014514 | 47 | 225 | 0.0 | 0.0 | 0.00 | 0.13 | 0.00 | 85 | 1026.1 |
| 20260906014153 | 48 | 0.0 | 0.0 | 0.00 | 0.13 | 0.00 | 84 | 1026.8 | |
| 20260906013008 | 48 | 225 | 0.0 | 0.0 | 0.00 | 0.13 | 0.00 | 84 | 1026.1 |
| 20260906011502 | 48 | 225 | 0.0 | 0.0 | 0.00 | 0.13 | 0.00 | 84 | 1026.0 |
| 20260906010003 | 48 | 225 | 0.0 | 0.0 | 0.00 | 0.13 | 0.00 | 84 | 1026.0 |
| 20260906004559 | 49 | 225 | 0.0 | 0.0 | 0.00 | 0.14 | 0.00 | 83 | 1026.0 |
| 20260906004033 | 50 | 0.0 | 0.0 | 0.00 | 0.14 | 0.00 | 83 | 1026.4 | |
| 20260906003057 | 49 | 225 | 0.0 | 0.0 | 0.00 | 0.14 | 0.00 | 83 | 1025.9 |
| 20260906001555 | 49 | 226 | 0.0 | 0.0 | 0.00 | 0.14 | 0.00 | 83 | 1025.8 |
| 20260906000054 | 50 | 226 | 0.0 | 0.0 | 0.00 | 0.14 | 0.00 | 82 | 1025.8 |
| 20260905234551 | 50 | 225 | 0.0 | 0.0 | 0.00 | 0.14 | 0.00 | 81 | 1025.7 |
| 20260905234124 | 51 | 0.0 | 0.0 | 0.00 | 0.14 | 0.00 | 81 | 1026.1 | |
| 20260905233049 | 51 | 226 | 0.0 | 0.0 | 0.00 | 0.14 | 0.00 | 81 | 1025.5 |
| 20260905231548 | 51 | 226 | 0.0 | 0.0 | 0.00 | 0.14 | 0.00 | 81 | 1025.4 |
| 20260905230044 | 52 | 226 | 0.0 | 0.0 | 0.00 | 0.14 | 0.00 | 79 | 1025.2 |
| 20260905224542 | 52 | 226 | 0.0 | 0.0 | 0.00 | 0.14 | 0.00 | 79 | 1025.1 |
| 20260905224030 | 53 | 0.0 | 0.0 | 0.00 | 0.14 | 0.00 | 78 | 1025.6 | |
| 20260905223038 | 53 | 226 | 0.0 | 0.0 | 0.00 | 0.14 | 0.00 | 78 | 1025.0 |
| 20260905221535 | 54 | 226 | 0.0 | 0.0 | 0.00 | 0.14 | 0.00 | 77 | 1024.8 |
| 20260905220032 | 54 | 226 | 0.0 | 0.0 | 0.00 | 0.14 | 0.00 | 75 | 1024.8 |
| 20260905214530 | 55 | 226 | 0.0 | 0.0 | 0.00 | 0.14 | 0.14 | 75 | 1024.9 |
| 20260905213959 | 56 | 0.0 | 0.0 | 0.00 | 0.14 | 0.14 | 74 | 1025.3 | |
| 20260905213029 | 55 | 226 | 0.0 | 0.0 | 0.00 | 0.14 | 0.14 | 74 | 1024.8 |
| 20260905211528 | 56 | 226 | 0.0 | 0.0 | 0.00 | 0.14 | 0.14 | 74 | 1024.5 |
| 20260905210028 | 56 | 226 | 0.0 | 0.0 | 0.00 | 0.14 | 0.14 | 72 | 1024.5 |
| 20260905204527 | 57 | 226 | 0.0 | 0.0 | 0.00 | 0.14 | 0.14 | 72 | 1024.4 |
| 20260905204030 | 57 | 0.0 | 0.0 | 0.00 | 0.14 | 0.14 | 71 | 1024.8 | |
| 20260905203025 | 57 | 226 | 0.0 | 0.0 | 0.00 | 0.14 | 0.14 | 71 | 1024.2 |
| 20260905201524 | 57 | 226 | 0.0 | 0.0 | 0.00 | 0.14 | 0.14 | 71 | 1024.0 |
| 20260905200031 | 58 | 226 | 0.0 | 0.0 | 0.00 | 0.14 | 0.14 | 70 | 1023.8 |
| 20260905194521 | 60 | 226 | 0.0 | 0.0 | 0.00 | 0.14 | 0.14 | 68 | 1023.7 |
| 20260905193957 | 62 | 0.0 | 0.0 | 0.00 | 0.14 | 0.14 | 65 | 1024.3 | |
| 20260905193020 | 61 | 225 | 0.0 | 0.0 | 0.00 | 0.14 | 0.14 | 65 | 1023.6 |
| 20260905191526 | 62 | 225 | 0.0 | 0.0 | 0.00 | 0.14 | 0.14 | 62 | 1023.5 |
| 20260905190029 | 63 | 225 | 0.0 | 1.0 | 0.00 | 0.14 | 0.14 | 61 | 1023.3 |
| 20260905184522 | 63 | 225 | 0.0 | 2.0 | 0.00 | 0.14 | 0.14 | 61 | 1023.1 |
| 20260905184230 | 64 | 0.0 | 1.0 | 0.00 | 0.14 | 0.14 | 61 | 1023.7 | |
| 20260905183014 | 64 | 225 | 0.0 | 3.0 | 0.00 | 0.14 | 0.14 | 60 | 1023.0 |
| 20260905181512 | 64 | 284 | 0.0 | 3.0 | 0.00 | 0.14 | 0.14 | 59 | 1022.7 |
| 20260905180012 | 65 | 324 | 1.0 | 3.0 | 0.00 | 0.14 | 0.14 | 58 | 1022.3 |
| 20260905174509 | 66 | 252 | 0.0 | 4.0 | 0.00 | 0.14 | 0.14 | 58 | 1022.1 |
| 20260905174119 | 67 | 270 | 2.0 | 2.0 | 0.00 | 0.14 | 0.14 | 56 | 1022.8 |
| 20260905173005 | 66 | 274 | 1.0 | 4.0 | 0.00 | 0.14 | 0.14 | 57 | 1021.9 |
| 20260905171504 | 67 | 266 | 1.0 | 5.0 | 0.00 | 0.14 | 0.14 | 57 | 1021.7 |
| 20260905170002 | 68 | 295 | 1.0 | 7.0 | 0.00 | 0.14 | 0.14 | 57 | 1021.5 |
| 20260905164501 | 68 | 178 | 1.0 | 6.0 | 0.00 | 0.14 | 0.14 | 57 | 1021.2 |
| 20260905164024 | 70 | 270 | 2.0 | 4.0 | 0.00 | 0.14 | 0.14 | 55 | 1022.0 |
| 20260905163058 | 69 | 208 | 2.0 | 6.0 | 0.00 | 0.14 | 0.14 | 55 | 1021.0 |
| 20260905161557 | 70 | 268 | 2.0 | 10.0 | 0.00 | 0.14 | 0.14 | 54 | 1020.7 |
| 20260905160059 | 70 | 198 | 2.0 | 9.0 | 0.00 | 0.14 | 0.14 | 54 | 1020.5 |
| 20260905154556 | 70 | 296 | 2.0 | 9.0 | 0.00 | 0.14 | 0.14 | 52 | 1020.4 |
| 20260905153954 | 71 | 270 | 2.0 | 3.0 | 0.00 | 0.14 | 0.14 | 53 | 1021.6 |
| 20260905153107 | 70 | 269 | 2.0 | 12.0 | 0.00 | 0.14 | 0.14 | 53 | 1020.5 |
| 20260905151558 | 71 | 291 | 2.0 | 7.0 | 0.00 | 0.14 | 0.14 | 54 | 1020.3 |
| 20260905150056 | 71 | 265 | 1.0 | 9.0 | 0.00 | 0.14 | 0.14 | 55 | 1020.1 |
| 20260905144552 | 70 | 241 | 1.0 | 7.0 | 0.00 | 0.14 | 0.14 | 58 | 1020.0 |
| 20260905144007 | 70 | 293 | 2.0 | 3.0 | 0.00 | 0.14 | 0.14 | 62 | 1021.1 |
| 20260905143051 | 70 | 294 | 2.0 | 8.0 | 0.00 | 0.14 | 0.14 | 62 | 1019.9 |
| 20260905141600 | 72 | 265 | 2.0 | 9.0 | 0.00 | 0.14 | 0.14 | 60 | 1020.0 |
| 20260905140053 | 71 | 278 | 2.0 | 6.0 | 0.00 | 0.14 | 0.14 | 60 | 1020.0 |
| 20260905134550 | 71 | 296 | 1.0 | 7.0 | 0.00 | 0.14 | 0.14 | 60 | 1019.7 |
| 20260905133937 | 71 | 248 | 2.0 | 3.0 | 0.00 | 0.14 | 0.14 | 62 | 1021.3 |
| 20260905133049 | 71 | 189 | 1.0 | 7.0 | 0.00 | 0.14 | 0.14 | 62 | 1019.8 |
| 20260905131559 | 72 | 205 | 2.0 | 8.0 | 0.00 | 0.14 | 0.14 | 59 | 1020.0 |
| 20260905130048 | 72 | 253 | 1.0 | 4.0 | 0.00 | 0.14 | 0.14 | 60 | 1020.0 |
| 20260905124545 | 72 | 268 | 2.0 | 6.0 | 0.00 | 0.14 | 0.14 | 62 | 1020.0 |
| 20260905123908 | 70 | 248 | 2.0 | 3.0 | 0.00 | 0.14 | 0.14 | 66 | 1021.6 |
| 20260905123043 | 69 | 267 | 2.0 | 11.0 | 0.00 | 0.14 | 0.14 | 67 | 1020.0 |
| 20260905121542 | 67 | 253 | 2.0 | 7.0 | 0.00 | 0.14 | 0.14 | 66 | 1020.1 |
| 20260905120042 | 68 | 296 | 2.0 | 14.0 | 0.00 | 0.14 | 0.14 | 67 | 1020.2 |
| 20260905114549 | 69 | 211 | 2.0 | 8.0 | 0.00 | 0.14 | 0.14 | 68 | 1020.3 |
| 20260905113940 | 69 | 225 | 3.0 | 7.0 | 0.00 | 0.14 | 0.14 | 72 | 1022.0 |
| 20260905113041 | 69 | 251 | 3.0 | 8.0 | 0.00 | 0.14 | 0.14 | 72 | 1020.4 |
| 20260905111543 | 67 | 198 | 1.0 | 9.0 | 0.00 | 0.14 | 0.14 | 71 | 1020.5 |
| 20260905110040 | 67 | 275 | 1.0 | 3.0 | 0.00 | 0.14 | 0.14 | 73 | 1020.6 |
| 20260905104544 | 66 | 226 | 1.0 | 6.0 | 0.00 | 0.14 | 0.14 | 78 | 1020.6 |
| 20260905103910 | 66 | 270 | 1.0 | 3.0 | 0.00 | 0.14 | 0.14 | 77 | 1022.1 |
| 20260905103039 | 65 | 269 | 1.0 | 4.0 | 0.00 | 0.14 | 0.14 | 77 | 1020.6 |
| 20260905101538 | 65 | 268 | 0.0 | 3.0 | 0.00 | 0.14 | 0.14 | 78 | 1020.7 |
| 20260905100037 | 65 | 251 | 4.0 | 10.0 | 0.00 | 0.14 | 0.14 | 80 | 1020.6 |
| 20260905094537 | 64 | 242 | 3.0 | 11.0 | 0.00 | 0.15 | 0.14 | 80 | 1020.7 |
| 20260905094044 | 64 | 225 | 5.0 | 6.0 | 0.00 | 0.15 | 0.14 | 81 | 1022.1 |
| 20260905093039 | 64 | 207 | 5.0 | 10.0 | 0.00 | 0.15 | 0.14 | 81 | 1020.6 |
| 20260905091537 | 63 | 215 | 3.0 | 10.0 | 0.00 | 0.15 | 0.14 | 83 | 1020.6 |
| 20260905090044 | 62 | 206 | 2.0 | 10.0 | 0.00 | 0.15 | 0.14 | 84 | 1020.5 |
| 20260905084534 | 61 | 211 | 3.0 | 10.0 | 0.00 | 0.15 | 0.14 | 85 | 1020.5 |
| 20260905083915 | 61 | 248 | 1.0 | 2.0 | 0.00 | 0.15 | 0.14 | 88 | 1022.0 |